Погода в Джафне

Шри-Ланка     9°39′36″N   80°01′14″E
темп.,
°C
ветер,
м/с
пор.,
м/с
влажн.,
%
обл.,
%
осадки,
мм/ч
давл.,
гПа
погр.,
м
16 мая, вс
вс1623:30+29ююз111576100 0.1 10061219
02:30+29юз111377100 0.8 10041261
05:30+29юз101274100 1.7 10051295
08:30+30юз81072100 1.4 10071175
11:30+31юз6868100 1.6 10071231
14:30+31ююз56665 3.3 1005853
17:30+30ююз67710 3.3 1004743
20:30+29ююз68756 0.1 1007591
17 мая, пн
пн1723:30+30ююз6873100 0.4 1007742
02:30+30ююз677196 0.3 1005838
05:30+29ююз567515 0.6 1006705
08:30+31ююз446922 0.1 10081018
11:30+31ююз446626 0.4 10081041
14:30+31ююз446512 0.0 1005951
17:30+30ююз55691 0.0 1005675
20:30+30ю68751 0.0 1007583
18 мая, вт
вт1823:30+29ю688275 0.6 1007578
02:30+29ю798036 0.9 1005625
05:30+29ююз687899 3.4 1006686
08:30+31ююз567039 1.0 1008890
11:30+31ююз666712 1.3 1007998
14:30+31ююз776872 0.4 1005923
17:30+30ю7975100 0.4 1005742
20:30+30ююз81078100 0.1 1007791
19 мая, ср
ср1923:30+30ююз9117954 0.3 1007830
02:30+29ююз9107855 0.0 1005973
05:30+29ююз8107697 0.1 10061020
08:30+30ююз897372 0.1 10081097
11:30+31ююз8972100 0.1 10071166
14:30+31ююз897181 0.1 10051132
17:30+30ююз91177100 0.1 10051086
20:30+29ююз101378100 0.0 1007987
20 мая, чт
чт2023:30+29ююз101378100 0.0 1007989
02:30+29ююз10137792 0.0 1004922
05:30+29юз101276100 0.0 10061061
08:30+30юз91075100 0.3 10081132
11:30+30юз9117581 0.7 10081134
14:30+31юз10117216 0.6 10061162
17:30+30ююз10137845 0.6 1006984
20:30+29ююз11147977 0.0 1007922